GW5397 Weather Reports


Display with metric or nautical units.
time (UTC)temp
F
wind
direction
speed
MPH
gust
MPH
rain 1hr
in
rain 24hr
in
rain mn
in
humidity
%
barometer
mb
20260508004130 66 18 0.0 0.0 0.00 0.00 0.00 27 1016.9
20260508003627 67 18 0.0 0.0 0.00 0.00 0.00 27 1017.0
20260508003125 67 18 0.0 0.0 0.00 0.00 0.00 27 1016.9
20260508002621 66 19 0.0 0.0 0.00 0.00 0.00 27 1016.9
20260508002119 66 18 0.0 0.0 0.00 0.00 0.00 27 1017.0
20260508001614 65 18 0.0 0.0 0.00 0.00 0.00 28 1016.8
20260508001110 66 18 0.0 0.0 0.00 0.00 0.00 28 1016.9
20260508000606 66 18 0.0 0.0 0.00 0.00 0.00 27 1016.9
20260508000104 66 18 0.0 0.0 0.00 0.00 0.00 27 1016.9
20260507235600 65 18 0.0 0.0 0.00 0.00 0.00 28 1016.8
20260507235058 66 17 0.0 0.0 0.00 0.00 0.00 27 1017.1
20260507234554 66 17 0.0 0.0 0.00 0.00 0.00 27 1016.9
20260507234050 66 18 0.0 0.0 0.00 0.00 0.00 27 1016.9
20260507233547 68 18 0.0 0.0 0.00 0.00 0.00 25 1017.0
20260507233046 68 18 0.0 0.0 0.00 0.00 0.00 26 1017.0
20260507232542 69 19 0.0 0.0 0.00 0.00 0.00 25 1017.0
20260507232039 67 20 0.0 0.0 0.00 0.00 0.00 27 1016.5
20260507231536 66 18 0.0 0.0 0.00 0.00 0.00 27 1016.8
20260507231033 66 18 0.0 0.0 0.00 0.00 0.00 28 1017.0
20260507230530 65 18 0.0 0.0 0.00 0.00 0.00 27 1017.0
20260507230026 66 18 0.0 0.0 0.00 0.00 0.00 27 1016.8
20260507225521 66 18 0.0 0.0 0.00 0.00 0.00 28 1017.0
20260507225018 66 18 0.0 1.0 0.00 0.00 0.00 27 1016.7
20260507224513 66 19 0.0 1.0 0.00 0.00 0.00 27 1017.0
20260507224010 66 18 0.0 1.0 0.00 0.00 0.00 27 1016.8
20260507223506 66 18 0.0 0.0 0.00 0.00 0.00 27 1017.1
20260507223004 66 19 0.0 0.0 0.00 0.00 0.00 28 1017.1
20260507222501 68 19 0.0 0.0 0.00 0.00 0.00 27 1017.0
20260507221957 70 19 0.0 0.0 0.00 0.00 0.00 26 1016.9
20260507221454 66 20 0.0 1.0 0.00 0.00 0.00 28 1017.3
20260507220950 67 18 0.0 0.0 0.00 0.00 0.00 28 1017.1
20260507220448 67 18 0.0 0.0 0.00 0.00 0.00 29 1017.3
20260507215944 67 18 0.0 0.0 0.00 0.00 0.00 29 1017.4
20260507215441 66 18 0.0 0.0 0.00 0.00 0.00 29 1017.3
20260507214938 66 18 0.0 0.0 0.00 0.00 0.00 28 1017.7
20260507214436 66 18 0.0 0.0 0.00 0.00 0.00 29 1017.1
20260507213931 68 18 0.0 0.0 0.00 0.00 0.00 29 1017.4
20260507213428 68 19 0.0 0.0 0.00 0.00 0.00 28 1017.3
20260507212925 68 19 0.0 0.0 0.00 0.00 0.00 27 1017.5
20260507212420 67 20 0.0 0.0 0.00 0.00 0.00 28 1017.4
20260507211918 66 18 0.0 0.0 0.00 0.00 0.00 31 1017.5
20260507211414 66 18 0.0 0.0 0.00 0.00 0.00 28 1017.4
20260507210911 66 18 0.0 0.0 0.00 0.00 0.00 29 1017.6
20260507210408 66 18 1.0 2.0 0.00 0.00 0.00 28 1017.5
20260507205904 66 19 0.0 1.0 0.00 0.00 0.00 29 1017.9
20260507205402 65 19 1.0 2.0 0.00 0.00 0.00 28 1018.0
20260507204858 66 18 1.0 2.0 0.00 0.00 0.00 27 1017.9
20260507204355 66 20 1.0 3.0 0.00 0.00 0.00 28 1018.0
20260507203852 67 20 1.0 3.0 0.00 0.00 0.00 27 1017.9
20260507203350 65 19 1.0 2.0 0.00 0.00 0.00 28 1018.0
20260507202846 66 19 2.0 5.0 0.00 0.00 0.00 27 1018.2
20260507202343 65 19 0.0 0.0 0.00 0.00 0.00 27 1018.5
20260507201838 66 19 2.0 5.0 0.00 0.00 0.00 27 1018.5
20260507201334 66 19 3.0 7.0 0.00 0.00 0.00 27 1018.4
20260507200830 66 19 6.0 10.0 0.00 0.00 0.00 27 1018.7
20260507200327 66 19 4.0 5.0 0.00 0.00 0.00 27 1018.4
20260507195823 68 19 9.0 13.0 0.00 0.00 0.00 27 1018.7
20260507195320 65 19 3.0 7.0 0.00 0.00 0.00 28 1018.6
20260507194817 66 19 5.0 7.0 0.00 0.00 0.00 27 1019.1
20260507194313 66 19 1.0 1.0 0.00 0.00 0.00 27 1019.2
20260507193810 65 19 3.0 7.0 0.00 0.00 0.00 27 1019.3
20260507193308 67 19 1.0 3.0 0.00 0.00 0.00 26 1019.1
20260507192803 66 19 0.0 0.0 0.00 0.00 0.00 26 1019.2
20260507192300 66 19 3.0 3.0 0.00 0.00 0.00 26 1019.2
20260507191756 66 19 1.0 2.0 0.00 0.00 0.00 26 1019.2
20260507191253 68 19 0.0 1.0 0.00 0.00 0.00 25 1019.6
20260507190750 66 19 1.0 2.0 0.00 0.00 0.00 26 1019.4
20260507190248 67 19 5.0 7.0 0.00 0.00 0.00 25 1019.6
20260507185746 67 19 1.0 3.0 0.00 0.00 0.00 25 1019.7
20260507185243 65 19 0.0 0.0 0.00 0.00 0.00 22 1019.4
20260507184741 67 19 3.0 6.0 0.00 0.00 0.00 24 1019.6
20260507184238 66 19 0.0 1.0 0.00 0.00 0.00 24 1019.7
20260507183735 66 19 0.0 0.0 0.00 0.00 0.00 22 1019.7
20260507183232 68 19 0.0 1.0 0.00 0.00 0.00 22 1019.6
20260507182730 66 19 0.0 0.0 0.00 0.00 0.00 23 1019.6
20260507182230 66 19 0.0 0.0 0.00 0.00 0.00 22 1019.4
20260507181727 66 19 0.0 1.0 0.00 0.00 0.00 22 1019.4
20260507181223 67 19 0.0 1.0 0.00 0.00 0.00 22 1019.6
20260507180720 64 19 0.0 0.0 0.00 0.00 0.00 23 1019.7
20260507180217 65 19 3.0 3.0 0.00 0.00 0.00 23 1020.0
20260507175712 65 18 0.0 0.0 0.00 0.00 0.00 22 1020.0
20260507175210 66 18 2.0 3.0 0.00 0.00 0.00 23 1019.9
20260507174708 66 18 0.0 0.0 0.00 0.00 0.00 24 1019.9
20260507174205 64 18 0.0 0.0 0.00 0.00 0.00 23 1020.2
20260507173702 64 18 2.0 2.0 0.00 0.00 0.00 22 1020.4
20260507173159 63 18 0.0 0.0 0.00 0.00 0.00 23 1020.7
20260507172656 64 19 0.0 0.0 0.00 0.00 0.00 21 1020.5
20260507172153 63 18 0.0 0.0 0.00 0.00 0.00 22 1020.4
20260507171652 63 17 0.0 0.0 0.00 0.00 0.00 20 1020.7
20260507171150 63 18 0.0 0.0 0.00 0.00 0.00 23 1020.7
20260507170647 60 18 0.0 1.0 0.00 0.00 0.00 23 1020.8
20260507170144 62 18 1.0 2.0 0.00 0.00 0.00 23 1020.8
20260507165639 63 18 0.0 0.0 0.00 0.00 0.00 24 1020.7
20260507165136 61 18 0.0 0.0 0.00 0.00 0.00 26 1021.0
20260507164632 62 18 0.0 0.0 0.00 0.00 0.00 23 1020.9
20260507164129 62 17 0.0 0.0 0.00 0.00 0.00 25 1020.9
20260507163626 62 18 0.0 0.0 0.00 0.00 0.00 27 1021.1
20260507163124 61 17 0.0 0.0 0.00 0.00 0.00 30 1021.0
20260507162620 60 18 0.0 0.0 0.00 0.00 0.00 27 1020.9
20260507162116 61 17 0.0 0.0 0.00 0.00 0.00 28 1021.3
20260507161612 60 18 0.0 0.0 0.00 0.00 0.00 27 1021.3
20260507161109 60 18 1.0 2.0 0.00 0.00 0.00 28 1021.0
20260507160606 60 18 0.0 0.0 0.00 0.00 0.00 27 1021.1
20260507155557 60 17 0.0 0.0 0.00 0.00 0.00 29 1021.3
20260507155055 60 18 0.0 0.0 0.00 0.00 0.00 29 1021.3
20260507154551 60 18 1.0 3.0 0.00 0.00 0.00 29 1021.4
20260507154048 60 17 0.0 0.0 0.00 0.00 0.00 31 1021.4
20260507153545 59 17 0.0 0.0 0.00 0.00 0.00 30 1021.5
20260507153041 59 17 0.0 0.0 0.00 0.00 0.00 30 1021.3
20260507152537 58 17 0.0 0.0 0.00 0.00 0.00 32 1021.3
20260507152034 58 16 0.0 0.0 0.00 0.00 0.00 31 1021.4
20260507151530 56 17 0.0 0.0 0.00 0.00 0.00 32 1021.3
20260507151027 57 17 0.0 0.0 0.00 0.00 0.00 33 1021.3
20260507150524 57 17 0.0 0.0 0.00 0.00 0.00 34 1021.1
20260507150021 57 17 0.0 0.0 0.00 0.00 0.00 34 1021.4
20260507145516 56 17 0.0 0.0 0.00 0.00 0.00 35 1021.3
20260507145014 55 16 0.0 0.0 0.00 0.00 0.00 33 1021.3
20260507144510 55 16 0.0 0.0 0.00 0.00 0.00 33 1021.1
20260507144008 55 17 0.0 0.0 0.00 0.00 0.00 33 1021.3
20260507143505 55 17 0.0 0.0 0.00 0.00 0.00 37 1021.0
20260507143002 54 17 0.0 0.0 0.00 0.00 0.00 37 1021.3
20260507142457 53 17 0.0 0.0 0.00 0.00 0.00 38 1021.3
20260507141954 53 17 0.0 0.0 0.00 0.00 0.00 39 1021.4
20260507141450 54 17 0.0 0.0 0.00 0.00 0.00 38 1021.0
20260507140947 53 17 0.0 0.0 0.00 0.00 0.00 38 1021.3
20260507140444 52 16 0.0 0.0 0.00 0.00 0.00 38 1021.4
20260507135942 53 16 0.0 0.0 0.00 0.00 0.00 39 1021.3
20260507135438 53 16 0.0 0.0 0.00 0.00 0.00 39 1021.3
20260507134936 53 17 0.0 0.0 0.00 0.00 0.00 41 1021.5
20260507134432 52 17 0.0 0.0 0.00 0.00 0.00 36 1021.1
20260507133928 51 17 0.0 0.0 0.00 0.00 0.00 38 1021.4
20260507133424 50 15 0.0 0.0 0.00 0.00 0.00 41 1021.1
20260507132923 49 15 0.0 0.0 0.00 0.00 0.00 42 1020.9
20260507132418 47 15 0.0 0.0 0.00 0.00 0.00 47 1021.1
20260507131915 47 15 0.0 0.0 0.00 0.00 0.00 43 1021.4
20260507131413 46 15 0.0 0.0 0.00 0.00 0.00 51 1021.0
20260507130909 45 15 0.0 0.0 0.00 0.00 0.00 51 1021.4
20260507130406 44 15 0.0 0.0 0.00 0.00 0.00 56 1021.3
20260507125905 42 15 0.0 0.0 0.00 0.00 0.00 65 1021.3
20260507125402 41 15 0.0 0.0 0.00 0.00 0.00 61 1021.3
20260507124900 39 15 0.0 0.0 0.00 0.00 0.00 61 1021.1
20260507124355 39 15 0.0 0.0 0.00 0.00 0.00 64 1021.1
20260507123854 38 15 0.0 0.0 0.00 0.00 0.00 67 1020.9
20260507123351 38 15 0.0 0.0 0.00 0.00 0.00 60 1021.0
20260507122847 35 16 0.0 0.0 0.00 0.00 0.00 69 1020.9
20260507122343 35 17 0.0 0.0 0.00 0.00 0.00 70 1020.9
20260507121839 35 17 0.0 0.0 0.00 0.00 0.00 67 1021.0
20260507121335 34 17 0.0 0.0 0.00 0.00 0.00 68 1020.9
20260507120832 32 17 0.0 0.0 0.00 0.00 0.00 74 1020.9
20260507120328 33 17 0.0 0.0 0.00 0.00 0.00 76 1021.0
20260507115824 33 17 0.0 0.0 0.00 0.00 0.00 72 1020.8
20260507115320 35 17 0.0 0.0 0.00 0.00 0.00 66 1020.9
20260507114816 33 17 0.0 0.0 0.00 0.00 0.00 71 1020.9
20260507114313 33 17 0.0 0.0 0.00 0.00 0.00 73 1020.9
20260507113811 33 17 0.0 0.0 0.00 0.00 0.00 74 1021.1
20260507113307 34 17 0.0 0.0 0.00 0.00 0.00 70 1021.0
20260507112805 34 17 0.0 0.0 0.00 0.00 0.00 69 1020.9
20260507112306 35 17 0.0 0.0 0.00 0.00 0.00 69 1020.8
20260507111800 33 17 0.0 0.0 0.00 0.00 0.00 73 1021.0
20260507111256 33 17 0.0 0.0 0.00 0.00 0.00 73 1020.9
20260507110752 34 17 0.0 0.0 0.00 0.00 0.00 70 1021.1
20260507110249 34 17 0.0 0.0 0.00 0.00 0.00 71 1020.9
20260507105746 32 17 0.0 0.0 0.00 0.00 0.00 73 1021.1
20260507105241 32 17 0.0 0.0 0.00 0.00 0.00 77 1020.9
20260507104739 32 17 0.0 0.0 0.00 0.00 0.00 79 1021.1
20260507104236 32 17 0.0 0.0 0.00 0.00 0.00 77 1021.1
20260507103732 32 17 0.0 0.0 0.00 0.00 0.00 74 1021.1
20260507103228 33 17 0.0 0.0 0.00 0.00 0.00 74 1021.4
20260507102724 32 17 0.0 0.0 0.00 0.00 0.00 72 1021.3
20260507102221 33 17 0.0 0.0 0.00 0.00 0.00 74 1020.9
20260507101717 32 17 0.0 0.0 0.00 0.00 0.00 76 1021.0
20260507101212 31 17 0.0 0.0 0.00 0.00 0.00 77 1021.1
20260507100710 31 17 0.0 0.0 0.00 0.00 0.00 79 1021.1
20260507100208 31 17 0.0 0.0 0.00 0.00 0.00 78 1021.4
20260507095706 31 17 0.0 0.0 0.00 0.00 0.00 81 1021.4
20260507095202 32 17 0.0 0.0 0.00 0.00 0.00 78 1021.3
20260507094659 32 17 0.0 0.0 0.00 0.00 0.00 76 1021.1
20260507094155 31 17 0.0 0.0 0.00 0.00 0.00 75 1021.1
20260507093653 31 17 0.0 0.0 0.00 0.00 0.00 78 1021.4
20260507093152 32 17 0.0 0.0 0.00 0.00 0.00 76 1021.6
20260507092648 32 17 0.0 0.0 0.00 0.00 0.00 76 1021.3
20260507092145 34 17 0.0 0.0 0.00 0.00 0.00 71 1021.5
20260507091641 32 17 0.0 0.0 0.00 0.00 0.00 71 1021.7
20260507091137 31 17 0.0 0.0 0.00 0.00 0.00 81 1021.3
20260507090633 30 17 0.0 0.0 0.00 0.00 0.00 80 1021.6
20260507090131 30 17 0.0 0.0 0.00 0.00 0.00 84 1021.4
20260507085627 29 16 0.0 0.0 0.00 0.00 0.00 85 1021.5
20260507085124 29 16 0.0 0.0 0.00 0.00 0.00 87 1021.9
20260507084621 29 16 0.0 0.0 0.00 0.00 0.00 87 1021.7
20260507084118 28 16 0.0 0.0 0.00 0.00 0.00 90 1021.9
20260507083615 28 16 0.0 0.0 0.00 0.00 0.00 89 1021.5
20260507083112 28 16 0.0 0.0 0.00 0.00 0.00 90 1022.0
20260507082607 28 16 0.0 0.0 0.00 0.00 0.00 91 1021.7
20260507082104 28 17 0.0 0.0 0.00 0.00 0.00 89 1021.9
20260507081600 28 16 0.0 0.0 0.00 0.00 0.00 90 1021.9
20260507081057 27 16 0.0 0.0 0.00 0.00 0.00 93 1022.0
20260507080553 28 16 0.0 0.0 0.00 0.00 0.00 92 1022.1
20260507080050 27 16 0.0 0.0 0.00 0.00 0.00 93 1022.0
20260507075545 27 16 0.0 0.0 0.00 0.00 0.00 93 1022.1
20260507075041 28 16 0.0 0.0 0.00 0.00 0.00 94 1022.2
20260507074538 28 16 0.0 0.0 0.00 0.00 0.00 95 1022.1
20260507074037 27 16 0.0 0.0 0.00 0.00 0.00 95 1022.2
20260507073532 27 16 0.0 0.0 0.00 0.00 0.00 96 1022.5
20260507073029 28 17 0.0 0.0 0.00 0.00 0.00 96 1022.5
20260507072527 28 16 0.0 0.0 0.00 0.00 0.00 96 1022.7
20260507072024 28 16 0.0 0.0 0.00 0.00 0.00 95 1022.5
20260507071521 28 17 0.0 0.0 0.00 0.00 0.00 95 1022.5
20260507071018 28 17 0.0 0.0 0.00 0.00 0.00 96 1022.5
20260507070515 29 16 0.0 0.0 0.00 0.00 0.00 96 1022.7
20260507070013 29 17 0.0 0.0 0.00 0.00 0.00 96 1022.8
20260507065508 29 17 0.0 0.0 0.00 0.00 0.00 96 1023.0
20260507065005 29 17 0.0 0.0 0.00 0.00 0.00 96 1022.6
20260507064504 29 17 0.0 0.0 0.00 0.00 0.00 95 1023.0
20260507064001 29 16 0.0 0.0 0.00 0.00 0.00 95 1022.7
20260507063458 29 17 0.0 0.0 0.00 0.00 0.00 94 1022.6
20260507062955 29 16 0.0 0.0 0.00 0.00 0.00 94 1022.8
20260507062452 29 16 0.0 0.0 0.00 0.00 0.00 95 1022.7
20260507061949 29 16 0.0 0.0 0.00 0.00 0.00 95 1022.5
20260507061447 29 17 0.0 0.0 0.00 0.00 0.00 94 1022.6
20260507060945 29 17 0.0 0.0 0.00 0.00 0.00 94 1022.6
20260507060442 29 17 0.0 0.0 0.00 0.00 0.00 94 1022.5
20260507055938 29 17 0.0 0.0 0.00 0.12 0.12 93 1022.6
20260507055434 29 17 0.0 0.0 0.00 0.12 0.12 94 1022.6
20260507054931 29 17 0.0 0.0 0.00 0.12 0.12 93 1022.7
20260507054427 29 17 0.0 0.0 0.00 0.12 0.12 93 1022.8
20260507053924 29 17 0.0 0.0 0.00 0.12 0.12 93 1022.5
20260507053422 29 17 0.0 0.0 0.00 0.12 0.12 93 1022.0
20260507052920 29 17 0.0 0.0 0.00 0.12 0.12 92 1022.4
20260507052417 29 17 0.0 0.0 0.00 0.12 0.12 93 1022.1
20260507051914 29 17 0.0 0.0 0.00 0.12 0.12 92 1022.4
20260507051412 29 17 0.0 0.0 0.00 0.12 0.12 92 1022.1
20260507050909 29 17 0.0 0.0 0.00 0.12 0.12 93 1021.9
20260507050405 29 17 0.0 0.0 0.00 0.12 0.12 93 1022.1
20260507045902 29 17 0.0 0.0 0.00 0.12 0.12 92 1022.1
20260507045359 30 17 0.0 0.0 0.00 0.12 0.12 91 1022.2
20260507044856 30 17 0.0 0.0 0.00 0.12 0.12 91 1022.2
20260507044352 30 17 0.0 0.0 0.00 0.12 0.12 91 1022.1
20260507043848 30 17 0.0 0.0 0.00 0.12 0.12 91 1022.2
20260507043345 30 17 0.0 0.0 0.00 0.12 0.12 91 1022.5
20260507042841 30 17 0.0 0.0 0.00 0.12 0.12 91 1022.2
20260507042337 30 17 0.0 0.0 0.00 0.12 0.12 91 1022.4
20260507041834 30 17 0.0 0.0 0.00 0.12 0.12 91 1022.1
20260507041331 30 17 0.0 0.0 0.00 0.12 0.12 91 1022.2
20260507040828 31 17 0.0 0.0 0.00 0.12 0.12 91 1022.4
20260507040324 30 17 0.0 0.0 0.00 0.12 0.12 91 1022.4
20260507035820 30 17 0.0 0.0 0.00 0.12 0.12 92 1022.2
20260507035315 30 17 0.0 0.0 0.00 0.12 0.12 92 1022.2
20260507034814 30 17 0.0 0.0 0.00 0.12 0.12 92 1022.0
20260507034310 30 17 0.0 0.0 0.00 0.12 0.12 92 1022.0
20260507033809 30 17 0.0 0.0 0.00 0.12 0.12 92 1022.4
20260507033306 30 17 0.0 0.0 0.00 0.12 0.12 92 1021.9
20260507032803 30 17 0.0 0.0 0.00 0.12 0.12 92 1022.1
20260507032259 30 17 0.0 0.0 0.00 0.12 0.12 93 1022.0
20260507031755 30 17 0.0 0.0 0.00 0.12 0.12 93 1022.0
20260507031252 30 17 0.0 0.0 0.00 0.12 0.12 92 1022.0
20260507030749 31 17 0.0 0.0 0.00 0.12 0.12 92 1021.9
20260507030246 31 17 0.0 0.0 0.00 0.12 0.12 91 1022.0
20260507025743 31 17 0.0 0.0 0.00 0.12 0.12 92 1021.9
20260507025240 31 17 0.0 0.0 0.00 0.12 0.12 93 1021.4
20260507024739 31 17 0.0 0.0 0.00 0.12 0.12 94 1021.7
20260507024236 31 17 0.0 0.0 0.00 0.12 0.12 93 1021.5
20260507023731 31 17 0.0 0.0 0.00 0.12 0.12 93 1021.4
20260507023228 32 17 0.0 0.0 0.00 0.12 0.12 93 1021.5
20260507022726 32 17 0.0 0.0 0.00 0.12 0.12 92 1021.6
20260507022221 32 17 0.0 0.0 0.00 0.12 0.12 92 1021.7
20260507021718 32 17 0.0 0.0 0.00 0.12 0.12 92 1021.9
20260507021213 32 17 0.0 0.0 0.00 0.12 0.12 92 1021.7
20260507020712 32 17 0.0 0.0 0.00 0.12 0.12 91 1021.7
20260507020208 32 17 0.0 0.0 0.00 0.12 0.12 90 1021.5
20260507015706 33 17 0.0 0.0 0.00 0.12 0.12 90 1021.4
20260507015203 33 17 0.0 0.0 0.00 0.12 0.12 89 1021.5
20260507014659 34 17 0.0 0.0 0.00 0.12 0.12 88 1021.5
20260507014155 34 17 0.0 0.0 0.00 0.12 0.12 88 1021.7
20260507013652 34 17 0.0 0.0 0.00 0.12 0.12 87 1021.9
20260507013149 35 17 0.0 0.0 0.00 0.12 0.12 84 1021.5
20260507012647 35 17 0.0 0.0 0.00 0.12 0.12 82 1021.3
20260507012142 36 17 0.0 0.0 0.00 0.12 0.12 82 1021.6
20260507011641 36 17 0.0 0.0 0.00 0.12 0.12 80 1021.6
20260507011137 37 17 0.0 0.0 0.00 0.12 0.12 78 1021.5
20260507010631 38 17 0.0 0.0 0.00 0.12 0.12 77 1021.5
20260507010128 38 18 0.0 0.0 0.00 0.12 0.12 75 1021.3
20260507005625 39 18 0.0 0.0 0.00 0.12 0.12 74 1021.4
20260507005121 39 18 0.0 0.0 0.00 0.12 0.12 75 1021.4
20260507004618 39 17 0.0 0.0 0.00 0.12 0.12 75 1021.1